When you browse on this site, cookies collect data to enhance your experience and personalize the content and advertising you see.
Visit our Privacy Policy to learn more. By continuing to use the site, you agree to this use of cookies and data.
  • In Italy
  • List of Countries
  • For 7 days
  • Water Temperature
  • Satellite Maps
  • Weather Map
  • Weather Widgets
  • user-avatar
    Login

    Hourly Weather Tuchubaevo

    Today, 21 January, Monday

    Time Temperature Precipitation Wind Pressure Humidity
    00:00 -16°C° 0 mm 2 mps 752 mmHg 97%
    01:00 -15°C° 0 mm 2 mps 752 mmHg 97%
    02:00 -17°C° 0 mm 3 mps 752 mmHg 97%
    03:00 -17°C° 0 mm 3 mps 752 mmHg 97%
    04:00 -19°C° 0 mm 4 mps 752 mmHg 97%
    05:00 -19°C° 0 mm 4 mps 752 mmHg 96%
    06:00 -20°C° 0 mm 5 mps 752 mmHg 96%
    07:00 -21°C° 0 mm 5 mps 752 mmHg 95%
    08:00 -20°C° 0 mm 5 mps 751 mmHg 95%
    09:00 -21°C° 0 mm 6 mps 751 mmHg 94%
    10:00 -21°C° 0 mm 6 mps 751 mmHg 93%
    11:00 -18°C° 0 mm 6 mps 751 mmHg 92%
    12:00 -18°C° 0 mm 7 mps 751 mmHg 91%
    13:00 -17°C° 0 mm 7 mps 751 mmHg 90%
    14:00 -17°C° 0.1 mm 7 mps 750 mmHg 90%
    15:00 -15°C° 0.1 mm 6 mps 750 mmHg 89%
    16:00 -15°C° 0.1 mm 6 mps 750 mmHg 89%
    17:00 -15°C° 0.1 mm 6 mps 750 mmHg 90%
    18:00 -15°C° 0.1 mm 6 mps 750 mmHg 91%
    19:00 -15°C° 0.1 mm 6 mps 750 mmHg 92%
    20:00 -15°C° 0.4 mm 6 mps 749 mmHg 93%
    21:00 -15°C° 0.4 mm 7 mps 749 mmHg 93%
    22:00 -15°C° 0.4 mm 7 mps 749 mmHg 93%
    23:00 -15°C° 0.4 mm 7 mps 748 mmHg 93%

    Tomorrow, 22 January, Tuesday

    Time Temperature Precipitation Wind Pressure Humidity
    00:00 -15°C° 0.4 mm 7 mps 747 mmHg 93%
    01:00 -15°C° 0.4 mm 7 mps 747 mmHg 93%
    02:00 -15°C° 0.3 mm 6 mps 746 mmHg 92%
    03:00 -15°C° 0.3 mm 6 mps 746 mmHg 92%
    04:00 -15°C° 0.3 mm 6 mps 745 mmHg 92%
    05:00 -13°C° 0.2 mm 5 mps 745 mmHg 93%
    06:00 -13°C° 0.2 mm 5 mps 745 mmHg 93%
    07:00 -12°C° 0.2 mm 4 mps 744 mmHg 94%
    08:00 -12°C° 0.2 mm 4 mps 744 mmHg 94%
    09:00 -11°C° 0.2 mm 4 mps 744 mmHg 94%
    10:00 -10°C° 0.2 mm 3 mps 744 mmHg 95%
    11:00 -10°C° 0.1 mm 3 mps 744 mmHg 94%
    12:00 -10°C° 0.1 mm 3 mps 744 mmHg 94%
    13:00 -10°C° 0.1 mm 3 mps 744 mmHg 93%
    14:00 -12°C° 0 mm 3 mps 745 mmHg 94%
    15:00 -13°C° 0 mm 3 mps 745 mmHg 94%
    16:00 -13°C° 0 mm 3 mps 745 mmHg 95%
    17:00 -16°C° 0 mm 4 mps 746 mmHg 95%
    18:00 -18°C° 0 mm 4 mps 747 mmHg 95%
    19:00 -20°C° 0 mm 4 mps 747 mmHg 96%
    20:00 -23°C° 0 mm 4 mps 748 mmHg 97%
    21:00 -25°C° 0 mm 4 mps 748 mmHg 98%
    22:00 -26°C° 0 mm 3 mps 749 mmHg 99%
    23:00 -27°C° 0 mm 3 mps 749 mmHg 99%

    Day after tomorrow, 23 January, Wednesday

    Time Temperature Precipitation Wind Pressure Humidity
    00:00 -29°C° 0 mm 3 mps 750 mmHg 99%
    01:00 -29°C° 0 mm 3 mps 750 mmHg 99%
    02:00 -29°C° 0 mm 3 mps 751 mmHg 98%
    03:00 -29°C° 0 mm 3 mps 752 mmHg 98%
    04:00 -29°C° 0 mm 3 mps 752 mmHg 98%
    05:00 -29°C° 0 mm 3 mps 753 mmHg 98%
    06:00 -29°C° 0 mm 3 mps 753 mmHg 98%
    07:00 -29°C° 0 mm 3 mps 753 mmHg 98%
    08:00 -30°C° 0 mm 3 mps 754 mmHg 98%
    09:00 -30°C° 0 mm 3 mps 755 mmHg 98%
    10:00 -30°C° 0 mm 3 mps 756 mmHg 97%
    11:00 -29°C° 0 mm 3 mps 756 mmHg 97%
    12:00 -29°C° 0 mm 3 mps 756 mmHg 97%
    13:00 -27°C° 0 mm 3 mps 757 mmHg 97%
    14:00 -29°C° 0 mm 3 mps 757 mmHg 97%
    15:00 -29°C° 0 mm 3 mps 758 mmHg 97%
    16:00 -30°C° 0 mm 3 mps 758 mmHg 97%
    17:00 -30°C° 0 mm 3 mps 759 mmHg 97%
    18:00 -30°C° 0 mm 3 mps 759 mmHg 97%
    19:00 -30°C° 0 mm 3 mps 760 mmHg 97%
    20:00 -29°C° 0 mm 3 mps 760 mmHg 97%
    21:00 -27°C° 0 mm 3 mps 760 mmHg 97%
    22:00 -29°C° 0 mm 4 mps 760 mmHg 97%
    23:00 -29°C° 0 mm 4 mps 761 mmHg 97%

    24 January, Thursday

    Time Temperature Precipitation Wind Pressure Humidity
    00:00 -29°C° 0 mm 4 mps 761 mmHg 97%
    01:00 -29°C° 0 mm 4 mps 761 mmHg 97%
    02:00 -29°C° 0 mm 4 mps 761 mmHg 97%
    03:00 -30°C° 0 mm 4 mps 762 mmHg 97%
    04:00 -30°C° 0 mm 4 mps 762 mmHg 98%
    05:00 -30°C° 0 mm 4 mps 762 mmHg 97%
    06:00 -30°C° 0 mm 4 mps 762 mmHg 97%
    07:00 -30°C° 0 mm 4 mps 762 mmHg 97%
    08:00 -29°C° 0 mm 5 mps 762 mmHg 95%
    09:00 -29°C° 0 mm 5 mps 761 mmHg 94%
    10:00 -28°C° 0 mm 5 mps 761 mmHg 93%
    11:00 -28°C° 0 mm 6 mps 761 mmHg 92%
    12:00 -27°C° 0 mm 6 mps 761 mmHg 92%
    13:00 -26°C° 0 mm 6 mps 760 mmHg 91%
    14:00 -24°C° 0 mm 6 mps 760 mmHg 91%
    15:00 -23°C° 0 mm 6 mps 759 mmHg 91%
    16:00 -23°C° 0 mm 6 mps 759 mmHg 91%
    17:00 -22°C° 0.2 mm 6 mps 758 mmHg 92%
    18:00 -22°C° 0.2 mm 6 mps 757 mmHg 92%
    19:00 -21°C° 0.2 mm 7 mps 756 mmHg 93%
    20:00 -20°C° 0.5 mm 7 mps 755 mmHg 93%
    21:00 -19°C° 0.5 mm 7 mps 754 mmHg 92%
    22:00 -19°C° 0.5 mm 7 mps 753 mmHg 92%
    23:00 -18°C° 0.2 mm 7 mps 752 mmHg 91%

    25 January, Friday

    Time Temperature Precipitation Wind Pressure Humidity
    00:00 -18°C° 0.2 mm 7 mps 751 mmHg 91%
    01:00 -17°C° 0.2 mm 6 mps 750 mmHg 90%
    02:00 -17°C° 0.2 mm 6 mps 750 mmHg 91%
    03:00 -17°C° 0.2 mm 6 mps 749 mmHg 92%
    04:00 -17°C° 0.2 mm 6 mps 749 mmHg 92%
    05:00 -17°C° 0.2 mm 5 mps 749 mmHg 92%
    06:00 -17°C° 0.2 mm 5 mps 748 mmHg 93%
    07:00 -17°C° 0.2 mm 5 mps 748 mmHg 93%
    08:00 -17°C° 0.1 mm 5 mps 748 mmHg 93%
    09:00 -17°C° 0.1 mm 5 mps 748 mmHg 92%
    10:00 -17°C° 0.1 mm 5 mps 748 mmHg 92%
    11:00 -18°C° 0.1 mm 5 mps 748 mmHg 91%
    12:00 -20°C° 0.1 mm 6 mps 748 mmHg 91%
    13:00 -20°C° 0.1 mm 6 mps 749 mmHg 90%
    14:00 -20°C° 0 mm 5 mps 749 mmHg 91%
    15:00 -21°C° 0 mm 5 mps 750 mmHg 91%
    16:00 -22°C° 0 mm 5 mps 751 mmHg 92%
    17:00 -23°C° 0 mm 4 mps 752 mmHg 94%
    18:00 -24°C° 0 mm 4 mps 753 mmHg 95%
    19:00 -26°C° 0 mm 4 mps 753 mmHg 96%
    20:00 -26°C° 0 mm 4 mps 754 mmHg 97%
    21:00 -26°C° 0 mm 3 mps 754 mmHg 97%
    22:00 -26°C° 0 mm 3 mps 755 mmHg 98%
    23:00 -27°C° 0 mm 3 mps 756 mmHg 98%

    26 January, Saturday

    Time Temperature Precipitation Wind Pressure Humidity
    00:00 -29°C° 0 mm 3 mps 756 mmHg 98%
    01:00 -30°C° 0 mm 3 mps 757 mmHg 98%
    02:00 -30°C° 0 mm 3 mps 757 mmHg 98%
    03:00 -29°C° 0 mm 2 mps 758 mmHg 98%
    04:00 -30°C° 0 mm 2 mps 758 mmHg 98%
    05:00 -31°C° 0 mm 2 mps 759 mmHg 99%
    06:00 -31°C° 0 mm 2 mps 759 mmHg 99%
    07:00 -32°C° 0 mm 2 mps 760 mmHg 99%
    08:00 -32°C° 0 mm 2 mps 760 mmHg 99%
    09:00 -31°C° 0 mm 2 mps 760 mmHg 98%
    10:00 -31°C° 0 mm 2 mps 761 mmHg 98%
    11:00 -30°C° 0 mm 2 mps 760 mmHg 97%
    12:00 -28°C° 0 mm 2 mps 760 mmHg 97%
    13:00 -27°C° 0 mm 2 mps 760 mmHg 96%
    14:00 -28°C° 0 mm 2 mps 760 mmHg 96%
    15:00 -28°C° 0 mm 2 mps 760 mmHg 96%
    16:00 -29°C° 0 mm 2 mps 760 mmHg 97%
    17:00 -27°C° 0 mm 1 mps 761 mmHg 97%
    18:00 -28°C° 0 mm 1 mps 761 mmHg 97%
    19:00 -28°C° 0 mm 1 mps 761 mmHg 97%
    20:00 -28°C° 0 mm 1 mps 761 mmHg 97%
    21:00 -28°C° 0 mm 1 mps 761 mmHg 97%
    22:00 -28°C° 0 mm 1 mps 761 mmHg 97%
    23:00 -28°C° 0 mm 1 mps 761 mmHg 97%
    Show more